Date,TemperatureHighF,TemperatureAvgF,TemperatureLowF,DewpointHighF,DewpointAvgF,DewpointLowF,HumidityHigh,HumidityAvg,HumidityLow,PressureMaxIn,PressureMinIn,WindSpeedMaxMPH,WindSpeedAvgMPH,GustSpeedMaxMPH,PrecipitationSumIn
2013-2-1,49,36,26,33,26,21,84,67,40,30.32,30.21,15,6,19,0.00
2013-2-2,49,36,25,32,26,20,80,68,46,30.33,30.20,10,4,59,0.00
2013-2-3,56,42,30,28,24,18,77,51,25,30.22,30.10,20,9,26,0.00
2013-2-4,54,44,38,25,21,14,54,40,22,30.12,29.91,17,7,23,0.00
2013-2-5,43,39,34,29,21,14,74,50,33,30.00,29.87,23,9,33,0.00
2013-2-6,46,38,32,25,22,18,72,54,33,30.05,29.85,23,8,28,0.00
2013-2-7,39,33,28,27,21,12,78,62,35,29.99,29.84,18,6,25,0.00
2013-2-8,36,30,24,22,18,11,78,62,34,30.08,29.99,17,6,27,0.00
2013-2-9,41,29,0,27,19,0,100,67,54,30.14,30.04,16,5,20,0.00
2013-2-10,42,33,25,25,20,17,82,62,38,30.20,30.13,14,4,18,0.00
2013-2-11,48,35,24,30,22,18,78,62,38,30.24,30.11,23,10,62,0.00
2013-2-12,47,37,31,30,26,23,81,66,40,30.34,30.24,15,7,23,0.00
2013-2-13,45,38,31,32,28,26,81,69,55,30.41,30.27,13,6,25,0.00
2013-2-14,51,38,30,33,30,26,84,72,50,30.42,30.34,16,7,21,0.00
2013-2-15,56,41,30,36,30,25,84,69,43,30.41,30.20,14,5,15,0.00
2013-2-16,52,38,27,30,24,16,79,57,31,30.21,30.08,22,8,25,0.00
2013-2-17,44,31,24,22,17,7,78,59,23,30.13,29.98,11,4,16,0.00
2013-2-18,28,27,26,20,19,18,74,72,68,29.98,29.89,7,2,13,1.28
2013-2-19,37,31,24,26,19,17,74,62,44,29.87,29.63,12,5,18,0.00
2013-2-20,39,30,20,22,18,12,76,60,41,29.97,29.87,14,5,72,0.20
2013-2-21,37,31,24,24,21,17,80,67,45,30.08,29.95,21,8,26,1.28
2013-2-22,43,34,27,32,26,20,86,72,55,30.07,29.82,28,12,41,0.07
2013-2-23,36,29,24,23,18,12,77,62,37,30.25,29.94,18,6,26,0.00
2013-2-24,44,32,21,29,20,15,76,64,44,30.27,30.02,22,9,24,0.00
2013-2-25,37,33,25,30,20,11,84,60,40,30.22,29.95,26,9,34,0.01
2013-2-26,45,34,22,19,15,10,74,50,27,30.24,30.13,20,8,25,0.00
2013-2-27,45,38,31,31,21,14,66,52,41,30.24,30.16,22,9,26,0.00
2013-2-28,50,43,37,39,35,29,82,74,60,30.39,30.17,21,10,29,0.00